Theta_e
291 291 293 293 295 298 299 299 297 296 295 293 292 292 292 291 292 292 293 292 292 292 292 291 291 291 290 290 291 291 291 292 294 292 293 294 297 297 297 299 302 301 299
287 288 289 290 294 296 298 298 298 295 294 294 292 292 291 291 291 291 291 291 291 291 291 290 290 290 289 289 289 290 289 291 292 289 290 289 293 296 296 298 298 297 298
289 288 287 289 292 295 297 297 296 295 294 292 290 289 289 289 289 289 290 290 290 290 290 289 289 289 289 288 288 289 288 287 290 291 289 287 286 288 295 295 295 295 297
289 289 288 288 291 294 297 298 296 294 292 291 291 291 290 289 289 289 289 289 289 289 289 289 289 288 289 288 288 289 289 289 287 290 292 291 290 285 284 292 293 295 294
289 288 288 290 291 294 295 295 294 292 291 290 291 290 289 288 288 287 287 287 288 288 287 288 287 287 288 288 288 288 288 289 288 287 288 288 289 289 286 284 288 292 294
287 288 289 290 291 293 294 293 292 291 290 289 289 289 288 287 287 286 287 287 287 287 286 287 287 287 287 287 287 287 287 287 287 288 288 287 286 286 286 285 286 286 290
285 286 287 289 290 290 291 292 292 288 289 288 288 288 288 288 288 287 287 286 286 286 285 286 286 287 287 287 287 287 287 287 287 287 288 288 288 288 288 286 285 285 288
285 286 288 290 289 290 291 291 290 288 288 288 287 287 287 287 287 286 286 286 285 285 285 286 286 286 286 287 287 287 287 288 288 287 288 288 288 289 288 286 285 282 285
286 287 289 290 289 290 290 291 290 289 288 287 287 286 286 286 286 285 286 285 284 285 286 286 285 285 286 286 286 286 286 287 287 287 288 287 288 289 289 288 288 285 281
286 287 288 288 290 290 290 290 290 288 288 287 287 286 286 286 285 285 285 285 284 285 285 285 285 285 285 286 287 287 287 287 288 288 287 287 288 288 289 289 289 288 285
286 287 287 288 289 289 289 289 288 287 287 287 286 286 285 285 285 285 285 284 284 284 284 284 285 285 285 286 286 287 287 286 287 287 287 286 287 287 288 289 289 288 287
286 286 287 287 287 287 287 287 287 287 287 287 286 286 285 285 284 284 284 284 283 284 283 284 284 284 284 285 285 286 287 286 285 284 284 285 287 287 288 288 288 287 288
287 285 285 285 286 286 287 287 287 287 286 286 286 285 284 284 282 282 281 282 280 280 281 283 283 282 281 282 285 286 286 286 284 284 284 285 286 286 287 287 287 287 287
286 285 285 285 286 286 286 286 286 286 286 286 285 284 284 283 281 279 278 277 277 278 279 280 279 278 278 283 285 286 286 284 283 283 284 285 285 285 285 285 285 286 285
288 284 285 284 285 285 285 286 286 285 285 285 284 283 283 281 279 276 275 276 281 279 276 275 276 276 279 284 286 286 284 282 281 281 283 284 285 285 286 286 286 286 285
287 286 284 284 284 285 285 285 285 285 285 284 284 282 281 279 278 276 273 273 275 280 274 275 275 275 280 283 286 286 282 281 281 280 283 284 284 285 286 287 286 288 286
288 287 285 285 286 286 287 286 285 285 284 284 284 281 280 279 277 274 271 273 274 273 275 273 274 275 277 281 284 285 282 280 279 279 280 281 284 284 285 283 285 286 287
288 288 287 286 287 287 286 286 285 284 285 284 282 281 280 279 276 273 272 272 273 274 275 274 273 273 275 280 283 284 279 277 276 277 278 280 282 284 284 282 281 281 282
288 288 288 287 287 287 286 286 284 285 285 284 283 281 280 278 276 274 273 272 272 273 274 275 274 273 274 279 282 283 278 278 277 276 277 279 282 284 285 282 281 280 279
282 285 287 285 286 286 285 285 284 284 284 285 283 281 280 279 277 278 273 271 272 275 276 276 273 272 275 278 281 282 279 277 277 275 276 279 283 283 284 281 280 279 279
279 280 280 282 285 285 285 285 285 284 286 286 283 280 280 280 280 278 273 272 272 275 274 275 274 273 274 274 281 283 278 278 276 276 276 277 281 282 283 282 280 279 279
277 278 279 278 276 281 284 284 284 285 284 282 280 279 279 280 279 277 275 274 275 275 273 273 274 274 275 275 280 282 283 280 276 276 276 276 281 279 281 279 279 278 274
279 277 278 278 276 277 282 281 278 279 278 279 280 279 279 279 278 277 276 275 275 276 275 275 275 276 275 275 282 283 283 283 277 276 276 279 278 277 274 277 276 270 272
278 276 277 277 277 277 279 279 278 277 277 278 279 278 278 277 278 279 279 278 276 276 276 276 276 276 274 275 275 277 279 280 279 277 274 275 276 275 272 270 270 269 270
280 279 278 278 277 277 277 277 277 277 278 278 277 277 278 278 277 278 279 279 280 280 278 278 279 277 276 277 278 278 276 275 276 268 269 270 270 271 271 270 268 268 268
280 279 279 277 276 275 275 275 277 277 277 277 277 278 278 277 278 278 278 282 283 282 284 283 281 279 281 282 283 283 282 282 281 269 270 270 269 270 269 269 269 267 266
Wind_Speed
12 9 11 12 11 10 13 14 14 12 10 6 5 3 4 3 3 4 5 4 3 4 4 3 3 4 5 5 6 5 7 5 8 6 6 5 4 6 6 6 5 8 9
8 8 10 13 15 16 16 15 15 15 10 7 3 3 4 2 3 4 5 4 4 4 3 3 3 4 3 5 6 6 4 3 8 6 4 5 2 6 7 4 5 10 9
17 13 12 15 13 16 18 17 16 16 11 8 7 5 5 4 3 3 3 2 3 3 3 3 3 3 3 3 4 4 6 4 4 7 3 4 4 10 4 9 6 14 8
13 12 15 15 17 15 15 16 16 15 11 11 7 6 5 4 3 3 3 3 3 3 3 3 3 2 2 3 3 4 3 3 4 4 4 5 6 4 6 4 9 4 12
14 15 17 19 15 14 15 14 15 14 11 11 8 6 5 3 4 4 5 4 3 3 3 3 2 2 1 3 3 3 4 3 3 3 4 5 4 6 5 9 6 9 8
9 10 9 11 14 12 13 13 16 13 12 11 9 9 9 8 6 5 4 3 2 2 2 2 2 1 2 3 3 3 4 4 3 3 3 3 3 4 6 7 12 13 7
6 7 12 14 14 17 16 14 16 14 12 11 9 8 8 8 8 7 5 5 2 1 1 1 1 1 2 3 3 3 3 3 3 4 4 4 6 6 7 8 10 7 10
5 8 11 12 14 17 17 17 17 14 13 11 10 8 8 5 5 6 5 4 3 2 2 0 1 2 3 3 3 2 3 3 3 6 6 5 6 6 6 6 8 10 6
5 6 7 11 13 15 18 19 17 14 13 12 9 8 8 8 7 7 5 4 4 2 3 1 0 1 2 2 3 2 3 3 4 5 6 6 6 6 6 6 6 6 9
5 2 4 6 9 12 12 14 15 17 15 12 10 8 8 7 7 7 7 5 4 3 3 2 1 1 3 2 3 3 3 3 4 4 6 6 6 6 5 5 6 6 8
2 5 5 5 6 8 11 12 13 14 13 12 10 10 8 8 8 6 6 5 5 4 3 3 3 3 3 2 3 3 3 4 5 6 6 7 8 5 5 5 6 6 6
6 5 6 7 7 9 10 12 11 12 12 11 10 9 8 8 8 7 7 7 6 4 3 3 3 3 2 2 2 3 4 5 6 7 7 7 5 6 6 5 7 7 8
7 3 3 7 8 9 11 11 11 12 11 11 11 9 9 9 8 7 6 5 5 4 3 3 3 3 0 1 2 4 4 4 5 5 6 7 7 6 5 6 7 6 6
4 5 5 6 8 10 11 11 10 10 11 11 11 11 10 10 8 6 6 5 5 5 4 3 2 3 1 2 2 3 3 2 3 5 6 6 7 7 8 7 7 7 6
10 6 7 7 7 9 8 9 10 11 12 12 11 11 9 8 7 7 6 5 6 5 4 3 2 2 1 2 2 1 3 4 4 3 5 5 7 11 10 7 8 7 6
12 10 8 8 10 11 13 11 12 12 12 12 12 9 10 9 8 7 7 6 6 5 4 4 4 4 2 4 4 2 2 3 3 4 4 6 6 9 13 15 16 13 7
13 12 10 12 12 14 14 15 14 12 12 12 10 11 10 10 10 8 7 7 7 5 6 5 4 5 4 5 3 3 1 2 3 3 5 5 5 8 7 12 14 8 9
19 14 10 7 11 11 13 12 13 14 14 13 12 11 11 11 9 9 8 5 5 6 5 5 5 4 4 7 5 3 2 1 2 3 3 5 7 8 7 8 8 8 5
16 15 9 7 7 12 12 13 13 14 14 14 13 13 13 12 11 11 10 6 5 5 5 4 6 5 5 7 6 3 1 0 2 2 3 4 6 10 11 6 8 7 5
12 13 8 4 8 11 13 14 13 14 16 16 15 14 14 13 13 12 10 5 4 5 5 6 5 5 5 6 7 4 2 1 2 2 2 5 6 8 9 4 6 6 7
12 9 7 7 7 9 13 15 13 17 14 12 12 12 13 13 12 10 6 7 7 5 5 6 5 6 6 6 10 8 4 3 2 2 2 2 7 5 6 5 4 5 6
8 6 5 3 2 4 10 10 14 8 9 10 11 11 12 10 8 10 8 6 7 7 6 5 4 5 6 10 11 11 9 7 3 3 2 3 4 4 5 4 6 6 4
7 4 1 2 4 4 2 5 2 7 8 9 9 10 10 10 10 11 9 7 8 7 7 6 5 5 4 5 15 13 12 10 4 2 4 3 1 2 1 5 6 5 2
5 3 4 5 4 4 5 2 5 5 7 8 8 8 10 10 9 8 8 8 8 8 7 7 7 6 4 5 5 5 5 8 5 5 2 3 2 1 2 1 4 3 3
4 5 6 7 7 5 6 5 4 5 5 5 6 7 6 9 8 8 8 9 9 11 9 9 8 7 6 8 12 11 7 5 6 4 1 2 2 2 1 1 1 2 3
4 7 7 7 7 8 8 8 6 3 3 4 4 5 5 5 5 6 5 14 13 15 18 12 10 6 8 10 17 19 17 15 13 2 3 3 4 4 3 2 1 0 1
Wind_Direction
242 207 205 187 171 169 165 166 156 157 146 143 136 137 146 142 116 104 104 103 93 71 75 57 35 25 24 10 0 341 345 349 346 328 333 335 4 49 6 344 24 36 10
214 209 196 182 184 178 175 171 169 163 164 154 137 140 146 144 126 129 121 103 92 74 82 52 36 27 13 10 6 7 353 341 5 345 328 340 342 6 343 42 20 7 348
220 209 187 192 179 182 178 174 170 168 165 137 123 100 95 93 123 155 145 110 95 80 70 59 43 18 11 1 359 8 18 347 354 4 346 335 336 342 335 344 5 347 355
213 203 190 185 188 185 176 173 165 165 160 156 152 152 160 154 165 142 139 133 96 76 61 51 35 12 353 351 354 17 1 359 350 355 33 341 316 336 318 305 322 344 329
211 198 190 191 184 170 172 166 160 160 157 165 161 151 143 122 131 130 137 128 105 83 58 52 39 20 4 7 12 357 350 354 341 346 332 316 294 268 272 302 320 313 322
207 201 191 166 169 162 163 160 160 160 158 161 161 160 152 149 145 153 155 148 130 116 63 58 33 11 13 13 13 355 344 329 314 289 289 294 300 303 293 297 309 310 311
211 188 173 172 167 169 164 162 163 161 162 158 158 160 155 156 158 162 160 153 151 158 122 110 349 15 14 356 354 345 323 300 284 287 282 281 274 285 292 297 301 298 310
214 200 189 182 175 172 167 166 166 159 162 160 162 157 150 152 159 157 152 147 154 159 159 155 358 12 6 4 338 318 301 287 290 288 285 284 281 279 278 287 298 305 290
256 211 183 178 172 175 174 168 163 161 165 164 154 158 154 157 159 153 146 149 142 160 166 191 299 26 35 352 295 280 288 293 287 279 279 279 278 272 270 273 280 294 313
339 265 185 170 177 171 166 164 166 166 166 158 159 161 163 156 154 156 157 155 143 163 180 204 142 56 52 318 307 295 298 299 305 290 288 293 292 281 274 269 272 271 285
272 198 187 167 157 155 162 161 158 151 160 161 160 156 162 159 153 164 155 161 154 165 185 203 114 59 18 6 328 321 321 322 311 305 298 297 297 280 273 268 267 268 272
285 235 177 158 158 158 158 163 159 161 167 161 158 160 156 156 161 167 168 170 156 161 172 195 131 93 34 347 336 338 343 324 340 335 319 306 300 283 278 273 273 270 276
313 275 221 181 173 167 168 168 169 170 159 155 157 156 167 166 174 168 164 163 141 169 182 202 153 109 9 312 325 334 322 337 338 306 306 310 322 317 311 295 286 277 278
278 250 220 231 185 181 177 171 172 166 160 161 164 169 176 175 175 163 163 167 155 170 168 210 173 118 260 245 264 299 293 324 322 319 316 315 316 314 312 297 285 278 276
302 212 228 202 217 177 176 175 177 169 165 166 171 182 169 160 156 161 170 176 168 181 162 191 205 213 189 238 270 290 348 323 318 329 305 296 307 307 313 308 301 287 272
262 266 224 201 192 202 185 179 181 176 168 174 183 166 161 161 172 168 174 176 175 181 179 188 218 226 216 242 286 353 355 330 314 318 323 319 311 322 324 328 314 302 279
271 259 213 211 199 194 185 187 180 170 179 180 178 169 166 173 180 168 168 187 184 175 202 202 204 241 237 233 243 333 3 312 311 313 329 324 321 320 324 340 334 352 15
279 265 252 208 206 190 191 172 171 175 181 185 179 171 172 180 170 167 186 182 175 189 189 212 203 214 259 249 228 244 128 208 293 303 312 313 326 328 341 347 348 345 358
286 274 247 215 180 186 181 173 174 179 181 189 183 176 177 177 173 185 189 181 180 184 189 197 195 201 229 243 246 245 169 261 305 308 305 309 317 328 352 349 340 341 345
279 282 265 204 185 183 162 170 181 179 195 189 183 179 177 178 184 189 182 168 184 193 182 201 203 203 223 222 225 213 189 271 284 300 298 306 328 340 351 5 339 336 344
284 283 256 217 213 174 169 179 177 200 194 181 170 172 178 181 186 179 160 170 182 174 192 204 193 204 208 226 225 219 181 206 229 253 269 282 308 346 352 359 331 330 340
308 300 257 186 67 157 171 181 192 175 150 161 165 170 171 175 170 173 173 167 172 184 192 200 228 217 208 216 227 223 218 202 202 236 227 271 317 360 0 9 11 10 23
306 309 195 121 90 89 148 162 154 132 140 157 167 170 169 176 170 172 177 178 183 189 198 200 212 227 198 208 222 220 222 224 198 202 233 270 358 39 38 26 30 23 27
336 346 59 56 67 80 68 82 156 136 142 156 162 176 172 173 176 184 185 187 187 194 199 202 211 216 195 208 207 213 219 229 209 202 200 216 195 63 93 21 29 30 28
341 32 56 69 52 57 64 51 95 131 146 132 156 173 169 176 181 200 194 199 206 199 197 209 203 190 213 218 204 194 193 194 201 137 162 195 202 217 218 197 22 32 43
346 51 50 50 48 59 48 31 26 52 120 155 167 167 163 168 177 190 214 229 226 216 224 217 198 210 214 194 202 206 201 196 174 135 187 203 201 209 196 190 192 90 58